User: anonymous   Login
Location: Fauquembergues
(50.6005°N, 2.0987°E)
Time: 13:24:38
(UTC+00:00)
Language:

Cosmos 2082 Rocket - Orbit

View from above orbital plane
View from above orbital plane
View from above satellite
View from above satellite

Ground track
Ground track

The orbit data is extracted from the following two-line orbital elements,

1 20625U 90046B   20274.93334427 -.00000287 +00000-0 -12454-3 0  9992
2 20625 070.9983 146.8032 0011887 079.5906 280.6555 14.14657731567534
Epoch (UTC): 30 September 2020 22:24:00
Eccentricity: 0.0011887
inclination: 70.9983°
perigee height: 835 km
apogee height: 852 km
right ascension of ascending node: 146.8032°
argument of perigee: 79.5906°
revolutions per day: 14.14657731
mean anomaly at epoch: 280.6555°
orbit number at epoch: 56753

The dashed part of the orbit path shows where the satellite is in the earth's shadow,  

DLR